Location: Adrasan
(36.3319°N, 30.4314°E)
Time: 11:59:37
(UTC+00:00)

Meteor 1-10 Rocket - Pass Details

Date: 29 May 2024
Orbit: 834 x 910 km, 81.3° (Epoch: 16 June)

Event Time Altitude Azimuth Distance (km) Brightness Sun altitude
Rises 19:17:46 0° 213° (SSW) 3,453 7.2 -20.9°
Reaches altitude 10° 19:20:29 10° 223° (SW) 2,507 6.6 -21.3°
Maximum altitude 19:25:29 32° 285° (WNW) 1,443 5.9 -21.9°
Drops below altitude 10° 19:30:28 10° 347° (NNW) 2,477 7.5 -22.5°
Sets 19:33:08 0° 358° (N) 3,407 8.2 -22.8°
